When you browse on this site, cookies collect data to enhance your experience and personalize the content and advertising you see.
Visit our Privacy Policy to learn more. By continuing to use the site, you agree to this use of cookies and data.
  • In Switzerland
  • List of Countries
  • For 7 days
  • Water Temperature
  • Satellite Maps
  • Weather Map
  • Weather Widgets
  • user-avatar
    Login

    Hourly Weather Sharan

    Today, 26 April, Friday

    Time Temperature Precipitation Wind Pressure Humidity
    00:00 +12°C° 0 mm 5 mps 587 mmHg 32%
    01:00 +12°C° 0 mm 4 mps 587 mmHg 34%
    02:00 +11°C° 0 mm 4 mps 586 mmHg 35%
    03:00 +11°C° 0 mm 4 mps 586 mmHg 36%
    04:00 +10°C° 0 mm 4 mps 586 mmHg 37%
    05:00 +10°C° 0 mm 4 mps 586 mmHg 38%
    06:00 +10°C° 0 mm 4 mps 586 mmHg 36%
    07:00 +10°C° 0 mm 5 mps 587 mmHg 35%
    08:00 +12°C° 0 mm 5 mps 588 mmHg 34%
    09:00 +13°C° 0 mm 5 mps 588 mmHg 30%
    10:00 +14°C° 0 mm 5 mps 589 mmHg 26%
    11:00 +16°C° 0 mm 5 mps 589 mmHg 21%
    12:00 +17°C° 0 mm 5 mps 589 mmHg 20%
    13:00 +19°C° 0 mm 6 mps 589 mmHg 18%
    14:00 +20°C° 0 mm 6 mps 589 mmHg 16%
    15:00 +20°C° 0 mm 6 mps 589 mmHg 16%
    16:00 +20°C° 0 mm 7 mps 589 mmHg 15%
    17:00 +20°C° 0 mm 8 mps 589 mmHg 15%
    18:00 +18°C° 0 mm 7 mps 589 mmHg 17%
    19:00 +17°C° 0 mm 6 mps 588 mmHg 19%
    20:00 +16°C° 0 mm 6 mps 588 mmHg 21%
    21:00 +15°C° 0 mm 5 mps 588 mmHg 23%
    22:00 +14°C° 0 mm 4 mps 588 mmHg 25%
    23:00 +13°C° 0 mm 3 mps 588 mmHg 27%

    Tomorrow, 27 April, Saturday

    Time Temperature Precipitation Wind Pressure Humidity
    00:00 +13°C° 0 mm 3 mps 588 mmHg 28%
    01:00 +12°C° 0 mm 3 mps 588 mmHg 30%
    02:00 +12°C° 0 mm 2 mps 587 mmHg 31%
    03:00 +12°C° 0 mm 2 mps 587 mmHg 32%
    04:00 +10°C° 0 mm 2 mps 587 mmHg 33%
    05:00 +10°C° 0 mm 2 mps 586 mmHg 34%
    06:00 +12°C° 0 mm 2 mps 587 mmHg 32%
    07:00 +12°C° 0 mm 3 mps 588 mmHg 29%
    08:00 +12°C° 0 mm 3 mps 588 mmHg 27%
    09:00 +14°C° 0 mm 3 mps 589 mmHg 24%
    10:00 +15°C° 0 mm 4 mps 589 mmHg 22%
    11:00 +18°C° 0 mm 4 mps 590 mmHg 19%
    12:00 +17°C° 0 mm 5 mps 590 mmHg 17%
    13:00 +19°C° 0 mm 5 mps 590 mmHg 16%
    14:00 +20°C° 0 mm 5 mps 590 mmHg 15%
    15:00 +20°C° 0 mm 6 mps 589 mmHg 15%
    16:00 +21°C° 0 mm 7 mps 589 mmHg 15%
    17:00 +21°C° 0 mm 8 mps 589 mmHg 15%
    18:00 +20°C° 0 mm 8 mps 589 mmHg 17%
    19:00 +18°C° 0 mm 7 mps 588 mmHg 19%
    20:00 +17°C° 0 mm 7 mps 588 mmHg 22%
    21:00 +16°C° 0 mm 7 mps 588 mmHg 23%
    22:00 +15°C° 0 mm 7 mps 588 mmHg 25%
    23:00 +14°C° 0 mm 7 mps 588 mmHg 27%

    Day after tomorrow, 28 April, Sunday

    Time Temperature Precipitation Wind Pressure Humidity
    00:00 +14°C° 0 mm 6 mps 588 mmHg 29%
    01:00 +13°C° 0 mm 5 mps 588 mmHg 30%
    02:00 +12°C° 0 mm 4 mps 587 mmHg 32%
    03:00 +12°C° 0 mm 3 mps 587 mmHg 34%
    04:00 +11°C° 0 mm 3 mps 587 mmHg 35%
    05:00 +10°C° 0 mm 2 mps 586 mmHg 37%
    06:00 +12°C° 0 mm 2 mps 587 mmHg 34%
    07:00 +13°C° 0 mm 2 mps 587 mmHg 32%
    08:00 +14°C° 0 mm 2 mps 588 mmHg 29%
    09:00 +15°C° 0 mm 2 mps 588 mmHg 26%
    10:00 +16°C° 0 mm 1 mps 589 mmHg 23%
    11:00 +19°C° 0 mm 1 mps 589 mmHg 20%
    12:00 +19°C° 0 mm 2 mps 589 mmHg 18%
    13:00 +20°C° 0 mm 2 mps 589 mmHg 15%
    14:00 +21°C° 0 mm 2 mps 589 mmHg 12%
    15:00 +21°C° 0 mm 3 mps 589 mmHg 12%
    16:00 +21°C° 0 mm 4 mps 589 mmHg 12%
    17:00 +21°C° 0 mm 4 mps 589 mmHg 11%
    18:00 +20°C° 0 mm 4 mps 589 mmHg 14%
    19:00 +19°C° 0 mm 4 mps 588 mmHg 16%
    20:00 +17°C° 0 mm 5 mps 588 mmHg 19%
    21:00 +18°C° 0 mm 4 mps 588 mmHg 21%
    22:00 +17°C° 0 mm 4 mps 588 mmHg 24%
    23:00 +15°C° 0 mm 4 mps 588 mmHg 27%

    29 April, Monday

    Time Temperature Precipitation Wind Pressure Humidity
    00:00 +14°C° 0 mm 3 mps 587 mmHg 28%
    01:00 +14°C° 0 mm 2 mps 587 mmHg 30%
    02:00 +14°C° 0 mm 2 mps 586 mmHg 31%
    03:00 +13°C° 0 mm 1 mps 586 mmHg 32%
    04:00 +12°C° 0 mm 1 mps 586 mmHg 34%
    05:00 +12°C° 0 mm 1 mps 585 mmHg 35%
    06:00 +13°C° 0 mm 1 mps 586 mmHg 31%
    07:00 +14°C° 0 mm 1 mps 587 mmHg 28%
    08:00 +15°C° 0 mm 1 mps 587 mmHg 24%
    09:00 +16°C° 0 mm 2 mps 588 mmHg 22%
    10:00 +18°C° 0 mm 2 mps 588 mmHg 19%
    11:00 +19°C° 0 mm 3 mps 589 mmHg 16%
    12:00 +20°C° 0 mm 4 mps 589 mmHg 15%
    13:00 +21°C° 0 mm 5 mps 589 mmHg 15%
    14:00 +21°C° 0 mm 6 mps 589 mmHg 14%
    15:00 +21°C° 0 mm 6 mps 588 mmHg 16%
    16:00 +21°C° 0 mm 7 mps 588 mmHg 18%
    17:00 +20°C° 0 mm 7 mps 587 mmHg 19%
    18:00 +20°C° 0 mm 6 mps 587 mmHg 22%
    19:00 +19°C° 0 mm 4 mps 587 mmHg 25%
    20:00 +18°C° 0 mm 2 mps 587 mmHg 28%
    21:00 +18°C° 0 mm 2 mps 587 mmHg 29%
    22:00 +17°C° 0 mm 2 mps 587 mmHg 31%
    23:00 +17°C° 0 mm 2 mps 587 mmHg 32%

    30 April, Tuesday

    Time Temperature Precipitation Wind Pressure Humidity
    00:00 +16°C° 0.1 mm 2 mps 586 mmHg 36%
    01:00 +16°C° 0.1 mm 3 mps 585 mmHg 39%
    02:00 +14°C° 0.1 mm 3 mps 585 mmHg 43%
    03:00 +13°C° 0.2 mm 3 mps 585 mmHg 47%
    04:00 +13°C° 0.2 mm 2 mps 584 mmHg 52%
    05:00 +13°C° 0.2 mm 1 mps 584 mmHg 57%
    06:00 +13°C° 0.1 mm 1 mps 585 mmHg 53%
    07:00 +14°C° 0.1 mm 2 mps 586 mmHg 50%
    08:00 +15°C° 0.1 mm 2 mps 586 mmHg 46%
    09:00 +16°C° 0 mm 2 mps 587 mmHg 41%
    10:00 +17°C° 0 mm 2 mps 587 mmHg 36%
    11:00 +19°C° 0 mm 2 mps 588 mmHg 31%
    12:00 +19°C° 0 mm 3 mps 587 mmHg 27%
    13:00 +20°C° 0 mm 4 mps 587 mmHg 24%
    14:00 +21°C° 0 mm 5 mps 587 mmHg 20%
    15:00 +21°C° 0 mm 5 mps 587 mmHg 19%
    16:00 +22°C° 0 mm 5 mps 587 mmHg 18%
    17:00 +22°C° 0 mm 5 mps 587 mmHg 17%
    18:00 +21°C° 0 mm 4 mps 587 mmHg 20%
    19:00 +20°C° 0 mm 3 mps 587 mmHg 23%
    20:00 +19°C° 0 mm 3 mps 587 mmHg 25%
    21:00 +18°C° 0 mm 3 mps 587 mmHg 30%
    22:00 +18°C° 0 mm 3 mps 586 mmHg 34%
    23:00 +17°C° 0 mm 3 mps 586 mmHg 38%

    1 May, Wednesday

    Time Temperature Precipitation Wind Pressure Humidity
    00:00 +16°C° 0 mm 3 mps 586 mmHg 42%
    01:00 +14°C° 0 mm 3 mps 585 mmHg 45%
    02:00 +13°C° 0 mm 3 mps 585 mmHg 49%
    03:00 +12°C° 0 mm 3 mps 584 mmHg 50%
    04:00 +12°C° 0 mm 3 mps 584 mmHg 51%
    05:00 +11°C° 0 mm 4 mps 584 mmHg 52%
    06:00 +12°C° 0 mm 3 mps 584 mmHg 48%
    07:00 +13°C° 0 mm 3 mps 585 mmHg 43%
    08:00 +13°C° 0 mm 3 mps 585 mmHg 39%
    09:00 +16°C° 0 mm 3 mps 586 mmHg 34%
    10:00 +17°C° 0 mm 3 mps 586 mmHg 28%
    11:00 +18°C° 0 mm 3 mps 587 mmHg 22%
    12:00 +19°C° 0 mm 3 mps 587 mmHg 20%
    13:00 +20°C° 0 mm 3 mps 586 mmHg 18%
    14:00 +21°C° 0 mm 3 mps 586 mmHg 15%
    15:00 +21°C° 0 mm 3 mps 586 mmHg 15%
    16:00 +21°C° 0 mm 2 mps 586 mmHg 15%
    17:00 +21°C° 0 mm 2 mps 586 mmHg 14%
    18:00 +20°C° 0 mm 2 mps 586 mmHg 17%
    19:00 +20°C° 0 mm 2 mps 586 mmHg 19%
    20:00 +19°C° 0 mm 2 mps 586 mmHg 21%
    21:00 +19°C° 0 mm 2 mps 586 mmHg 23%
    22:00 +18°C° 0 mm 2 mps 586 mmHg 25%
    23:00 +17°C° 0 mm 2 mps 586 mmHg 27%
    Show more